Back to catalog

EXPRESS AM-44

AliveCommunicationsGEO
NORAD 33595·PAYLOAD·🇷🇺 Russia

Launched Feb 11, 2009 from Baikonur Cosmodrome

Loading…

TLE

FreshSource: Space-Track

Epoch: Sep 14, 2026, 15:27 UTC

1 33595U 09007A   26257.64426133 -.00000096  00000-0  00000-0 0  9998
2 33595   3.6874  77.2437 0003561  96.1099  41.2102  1.00272140 53188

Track EXPRESS AM-44 in real time with AllMySat

Download on the App Store